West Palm Beach, FL

5:57 AM EDT on September 23, 2019 (GMT -0400)
Palm Beach International

Weather History for KPBI - July, 2019

Change the Weather History Date:

Wednesday, July 10, 2019

  Actual Average Record
Temperature  
Mean Temperature 84 °F 82 °F  
Max Temperature 91 °F 90 °F 96 °F (1981)
Min Temperature 77 °F 75 °F 67 °F (1913)
Degree Days  
Heating Degree Days 0 0  
Month to date heating degree days 0 0  
Since 1 June heating degree days 0 0  
Since 1 July heating degree days 0 0  
Cooling Degree Days 19 17  
Month to date cooling degree days 188 170  
Year to date cooling degree days 2160 1769  
Since 1 June cooling degree days 759 660  
Growing Degree Days 34 (Base 50)    
Moisture  
Dew Point 74 °F    
Average Humidity 72    
Maximum Humidity 88    
Minimum Humidity 55    
Precipitation  
Precipitation 0.00 in 0.20 in 1.82 in (1917)
Month to date precipitation 0.85 2.10  
Year to date precipitation 29.05 29.11  
Snow  
Snow 0.00 in - - ()
Month to date snowfall 0.0  
Since 1 June snowfall 0.0  
Since 1 July snowfall 0.0  
Snow Depth 0.00 in    
Sea Level Pressure  
Sea Level Pressure 30.02 in    
Wind  
Wind Speed 9 mph (South)    
Max Wind Speed 21 mph    
Max Gust Speed 24 mph    
Visibility 10 miles    
Events      
T = Trace of Precipitation, MM = Missing Value Source: NWS Daily Summary

Daily Weather History Graph

Daily Weather History Graph

Search for Another Location

Airport or City:

Astronomy

Jul. 10, 2019 Rise Set
Actual Time 6:34 AM EDT 8:17 PM EDT
Civil Twilight 6:08 AM EDT 8:43 PM EDT
Nautical Twilight 5:36 AM EDT 9:14 PM EDT
Astronomical Twilight 5:04 AM EDT 9:47 PM EDT
Moon 2:43 PM EDT (7/10) 1:47 AM EDT (7/10)
Length of Visible Light 14h 34m
Length of Day
13h 43m
Waxing Gibbous, 63% of the Moon is Illuminated
Jul 10
Waxing Gibbous
Jul 16
Full
Jul 24
Last Quarter
Jul 31
New
Aug 7
First Quarter

Hourly Weather History & Observations

Time (EDT) Temp. Heat Index Dew Point Humidity Pressure Visibility Wind Dir Wind Speed Gust Speed Precip Events Conditions
12:53 AM 79.0 °F - 73.9 °F 84% 30.02 in 10.0 mi South 3.5 mph - N/A   Scattered Clouds
1:53 AM 79.0 °F - 73.0 °F 82% 30.01 in 10.0 mi SSW 4.6 mph - N/A   Scattered Clouds
2:53 AM 78.1 °F - 73.0 °F 84% 29.99 in 10.0 mi SW 5.8 mph - N/A   Scattered Clouds
3:53 AM 78.1 °F - 73.0 °F 84% 29.99 in 10.0 mi Calm Calm - N/A   Scattered Clouds
4:53 AM 77.0 °F - 73.9 °F 90% 29.99 in 10.0 mi South 5.8 mph - N/A   Scattered Clouds
5:53 AM 77.0 °F - 73.9 °F 90% 30.01 in 10.0 mi SSW 3.5 mph - N/A   Scattered Clouds
6:53 AM 77.0 °F - 73.9 °F 90% 30.02 in 10.0 mi SSW 3.5 mph - N/A   Mostly Cloudy
7:53 AM 79.0 °F - 73.9 °F 84% 30.04 in 10.0 mi SSW 4.6 mph - N/A   Mostly Cloudy
8:53 AM 81.0 °F 86.2 °F 73.9 °F 79% 30.05 in 10.0 mi SW 5.8 mph - N/A   Mostly Cloudy
9:53 AM 84.9 °F 90.7 °F 72.0 °F 65% 30.05 in 10.0 mi SSW 11.5 mph - N/A   Mostly Cloudy
10:53 AM 87.1 °F 93.6 °F 72.0 °F 61% 30.05 in 10.0 mi South 9.2 mph - N/A   Mostly Cloudy
11:53 AM 87.1 °F 92.0 °F 70.0 °F 57% 30.05 in 10.0 mi SW 6.9 mph - N/A   Mostly Cloudy
12:53 PM 88.0 °F 96.5 °F 73.9 °F 63% 30.04 in 10.0 mi SE 13.8 mph - N/A   Mostly Cloudy
1:53 PM 90.0 °F 99.0 °F 73.9 °F 59% 30.03 in 10.0 mi SE 18.4 mph - N/A   Mostly Cloudy
2:53 PM 89.1 °F 98.0 °F 73.9 °F 61% 30.01 in 10.0 mi SE 16.1 mph - N/A   Mostly Cloudy
3:53 PM 88.0 °F 96.5 °F 73.9 °F 63% 30.00 in 10.0 mi SSE 16.1 mph - N/A   Mostly Cloudy
4:53 PM 87.1 °F 94.5 °F 73.0 °F 63% 30.00 in 10.0 mi SSE 17.3 mph - N/A   Mostly Cloudy
5:53 PM 87.1 °F 96.3 °F 75.0 °F 67% 29.99 in 10.0 mi SE 15.0 mph - N/A   Mostly Cloudy
6:53 PM 86.0 °F 95.1 °F 75.0 °F 70% 29.99 in 10.0 mi SSE 11.5 mph - N/A   Mostly Cloudy
7:53 PM 84.9 °F 92.1 °F 73.9 °F 69% 30.01 in 10.0 mi SSE 15.0 mph 19.6 mph N/A   Mostly Cloudy
8:53 PM 84.0 °F 91.2 °F 73.9 °F 72% 30.03 in 10.0 mi SSE 11.5 mph - N/A   Mostly Cloudy
9:53 PM 82.9 °F 89.4 °F 73.9 °F 74% 30.04 in 10.0 mi South 8.1 mph - N/A   Scattered Clouds
10:53 PM 82.9 °F 89.4 °F 73.9 °F 74% 30.05 in 10.0 mi SSE 4.6 mph - N/A   Scattered Clouds
11:53 PM 82.0 °F 87.9 °F 73.9 °F 76% 30.05 in 10.0 mi South 3.5 mph - N/A   Scattered Clouds